Englewood, CO

12:22 PM MST on February 10, 2016 (GMT -0700)
Centennial

Weather History for KAPA - March, 2014

Change the Weather History Date:

Friday, March 28, 2014

  Actual Average Record
Temperature  
Mean Temperature 40 °F -  
Max Temperature 52 °F 54 °F 76 °F (2015)
Min Temperature 28 °F 28 °F 14 °F (2009)
Degree Days  
Heating Degree Days 25    
Month to date heating degree days 735  
Moisture  
Dew Point 18 °F    
Average Humidity 52    
Maximum Humidity 89    
Minimum Humidity 14    
Precipitation  
Precipitation T in - - ()
Month to date precipitation 0.74  
Year to date precipitation 1.59  
Sea Level Pressure  
Sea Level Pressure 30.02 in    
Wind  
Wind Speed 10 mph (NW)    
Max Wind Speed 29 mph    
Max Gust Speed 37 mph    
Visibility 10 miles    
Events      
Averages and records for this station are not official NWS values.
T = Trace of Precipitation, MM = Missing Value Source: NWS Daily Summary

Daily Weather History Graph

Daily Weather History Graph

Search for Another Location

Airport or City:

Trip Planner

Search our weather history database for the weather conditions in past years. The results will help you decide how hot, cold, wet, or windy it might be!

Date:

Astronomy

Mar. 28, 2014 Rise Set
Actual Time 6:49 AM MDT 7:19 PM MDT
Civil Twilight 6:22 AM MDT 7:46 PM MDT
Nautical Twilight 5:51 AM MDT 8:18 PM MDT
Astronomical Twilight 5:18 AM MDT 8:51 PM MDT
Moon 5:21 AM MDT (3/28) 5:19 PM MDT (3/28)
Length of Visible Light 13h 23m
Length of Day
12h 29m
Waning Crescent, 6% of the Moon is Illuminated
Mar 28
Waning Crescent
Mar 30
New
Apr 7
First Quarter
Apr 15
Full
Apr 22
Last Quarter

Hourly Weather History & Observations

Time (MDT) Temp. Windchill Dew Point Humidity Pressure Visibility Wind Dir Wind Speed Gust Speed Precip Events Conditions
12:53 AM 36.0 °F 28.0 °F 30.0 °F 79% 29.85 in 10.0 mi North 11.5 mph - N/A   Overcast
1:26 AM 35.1 °F 26.9 °F 30.9 °F 85% 29.90 in 10.0 mi North 11.5 mph - N/A   Overcast
1:53 AM 35.1 °F 28.6 °F 30.9 °F 85% 29.88 in 9.0 mi NE 8.1 mph - 0.00 in   Overcast
2:19 AM 34.0 °F 28.8 °F 30.9 °F 89% 29.90 in 10.0 mi NE 5.8 mph - N/A   Overcast
2:41 AM 34.0 °F 29.8 °F 30.9 °F 89% 29.90 in 10.0 mi East 4.6 mph - N/A   Overcast
2:53 AM 34.0 °F 29.8 °F 30.0 °F 85% 29.89 in 10.0 mi ESE 4.6 mph - N/A   Overcast
3:53 AM 32.0 °F 24.8 °F 28.9 °F 88% 29.88 in 10.0 mi SSW 8.1 mph - N/A   Mostly Cloudy
4:53 AM 30.0 °F 22.4 °F 27.0 °F 88% 29.90 in 10.0 mi SSE 8.1 mph - N/A   Partly Cloudy
5:53 AM 28.9 °F 20.4 °F 24.1 °F 82% 29.91 in 10.0 mi South 9.2 mph - N/A   Partly Cloudy
6:53 AM 28.0 °F 20.8 °F 24.1 °F 85% 29.96 in 10.0 mi SE 6.9 mph - N/A   Partly Cloudy
7:53 AM 30.9 °F 26.2 °F 26.1 °F 82% 30.00 in 10.0 mi SSE 4.6 mph - N/A   Partly Cloudy
8:53 AM 39.0 °F 34.0 °F 23.0 °F 53% 29.99 in 10.0 mi West 6.9 mph - N/A   Partly Cloudy
9:53 AM 42.1 °F 38.4 °F 12.9 °F 31% 30.01 in 10.0 mi Variable 5.8 mph - N/A   Partly Cloudy
10:53 AM 45.0 °F 38.2 °F 10.9 °F 25% 30.03 in 10.0 mi West 15.0 mph - N/A   Scattered Clouds
11:53 AM 48.9 °F - 7.0 °F 18% 30.01 in 10.0 mi NW 20.7 mph 25.3 mph N/A   Partly Cloudy
12:53 PM 50.0 °F - 3.9 °F 15% 30.02 in 10.0 mi WNW 23.0 mph 36.8 mph N/A   Partly Cloudy
1:53 PM 51.1 °F - 10.0 °F 19% 30.02 in 10.0 mi NNW 24.2 mph 33.4 mph N/A   Scattered Clouds
2:53 PM 50.0 °F - 6.1 °F 17% 30.04 in 10.0 mi WNW 13.8 mph 31.1 mph N/A   Partly Cloudy
3:53 PM 50.0 °F - 5.0 °F 16% 30.04 in 10.0 mi NW 13.8 mph 31.1 mph N/A   Partly Cloudy
4:53 PM 50.0 °F - 10.0 °F 20% 30.07 in 10.0 mi NNW 18.4 mph 23.0 mph N/A   Scattered Clouds
5:53 PM 48.0 °F - 10.0 °F 22% 30.10 in 10.0 mi NW 18.4 mph 34.5 mph N/A   Partly Cloudy
6:53 PM 46.0 °F 41.0 °F 10.9 °F 24% 30.15 in 10.0 mi North 10.4 mph - N/A   Partly Cloudy
7:53 PM 41.0 °F 34.7 °F 10.9 °F 29% 30.18 in 10.0 mi North 10.4 mph - N/A   Partly Cloudy
8:53 PM 39.9 °F 37.8 °F 10.9 °F 31% 30.18 in 10.0 mi NW 3.5 mph - N/A   Partly Cloudy
9:53 PM 34.0 °F 27.2 °F 12.9 °F 42% 30.22 in 10.0 mi South 8.1 mph - N/A   Clear
10:53 PM 33.1 °F 25.5 °F 12.0 °F 42% 30.22 in 10.0 mi SSE 9.2 mph - N/A   Clear
11:53 PM 33.1 °F 23.4 °F 12.9 °F 43% 30.19 in 10.0 mi South 13.8 mph - N/A   Clear